Orbital Elements
The following orbital elements are taken from MPO219533
Epoch 2012 Mar. 14.0 TT = JDT 2456000.5 MPC
M 326.07859 (2000.0) P Q
n 0.68777318 Peri. 322.11932 -0.63129526 +0.67769828
a 1.2710790 Node 265.28749 -0.58645835 -0.73530955
e 0.8901393 Incl. 22.23224 -0.50747699 +0.00670122
P 1.43 H 14.6 G 0.15 U 0
From 2322 observations at 20 oppositions, 1983-2012, mean residual 0".51.
|